Location: Table Mountain
(47.2500°N, 120.5778°W)
Time: 03:09:02
(UTC-08:00)

N. Korean satellite - Pass Details

Date: 12 October 2017
Orbit: 461 x 513 km, 97.2° (Epoch: 16 December)

Event Time Altitude Azimuth Distance (km) Brightness Sun altitude
Rises 18:48:11 0° 160° (SSE) 2,546 10.1 -5.6°
Reaches altitude 10° 18:50:15 10° 158° (SSE) 1,661 9.1 -6.0°
Maximum altitude 18:53:48 68° 75° (ENE) 518 6.5 -6.6°
Drops below altitude 10° 18:57:19 10° 352° (N) 1,646 9.3 -7.2°
Sets 18:59:22 0° 350° (N) 2,521 10.3 -7.5°
